Regional Weather Roundup
Issued by NWS Goodland, KS

Home | Current Version | Previous Version | Graphics & Text | Print | Product List | Glossary On
Versions: 1 2 3 4 5 6 7 8 9 10 11 12 13 14 15 16 17 18 19 20 21 22 23 24 25 26 27 28 29 30 31 32 33 34 35 36 37 38 39 40 41 42 43 44 45 46 47 48 49 50
000
ASUS43 KGLD 041359
RWRGLD

GOODLAND FORECAST AREA HOURLY WEATHER ROUNDUP
NATIONAL WEATHER SERVICE GOODLAND KS
800 AM MDT WED MAY 04 2016

...OFFICIAL OBSERVATIONS...

CITY           SKY/WX    TMP DP  RH WIND       PRES   REMARKS
GOODLAND KS    SUNNY     57  39  51 W9        30.19R
HILL CITY KS   SUNNY     58  43  57 N12       30.14R
IMPERIAL NEB   SUNNY     53  41  63 N14       30.18R
MCCOOK NEB     SUNNY     54  44  69 NW6       30.16R
AKRON CO       SUNNY     50  37  61 W14       30.23R
BURLINGTON CO  SUNNY     54  39  57 W10       30.23R
LIMON CO       SUNNY     52  37  56 VRB3      30.28R
$$

...UNOFFICIAL OBSERVATIONS...

CITY           SKY/WX    TMP DP  RH WIND       PRES   REMARKS
COLBY KS       SUNNY     55  46  71 NW9       30.18R
NORTON KS      SUNNY     55  39  54 NW8       30.13R
SHARON SPRINGS   N/A     54  44  69 NW9         N/A
KIT CARSON CO    N/A     58  43  58 MISG        N/A
YUMA CO          N/A     50  44  79 NW8         N/A
$$



USA.gov is the U.S. government's official web portal to all federal, state and local government web resources and services.